Flag for Canada Weather past 2 weeks in Regina, Saskatchewan, Canada

Now
34 °F

Passing clouds.


Feels Like: 30 °F
Forecast: 29 / 53 °F
Wind: 5 mph from South

Location: Regina Weather Station

Current Time: Oct 25, 2014 at 9:35:40 AM

Latest Report: Oct 25, 2014 at 9:00 AM


Visibility: 15 mi

Pressure: 30.16 "Hg

Humidity: 87%

Dew point: 30 °F

Location of ReginaLocation

Historic Weather in Regina — Graph

°F

Regina temperature yesterday

Maximum temperature yesterday: 55 °F (at 12:00 PM)
Minimum temperature yesterday: 34 °F (at 11:00 PM)
Average temperature yesterday: 47 °F

Past Weeks' High & Low Weather Summary

 TemperatureHumidityPressure
High75 °F (Oct 20, 3:00 PM)100% (Oct 12, 4:00 AM)30.31 "Hg (Oct 12, 4:00 AM)
Low27 °F (Oct 25, 7:00 AM)30% (Oct 10, 4:00 PM)29.53 "Hg (Oct 16, 12:00 AM)
Average47 °F74%29.86 "Hg
* Reported Oct 10 8:00 AM — Oct 25 8:00 AM, Regina, Weather by CustomWeather, © 2014

Note: Actual official high and low records may vary slightly from our data, if they occured in-between our weather recording intervals... More about our weather records

Advertising

Regina weather history for previous 24 hours

 ConditionsComfort  
Time TempWeatherWind HumidityBarometerVisibility
8:00 AM
Oct 25
27 °FScattered clouds.2 mph93%30.16 "Hg15 mi
7:00 AM27 °FPassing clouds.2 mph93%30.16 "Hg15 mi
6:00 AM30 °FClear.3 mph93%30.13 "Hg15 mi
5:00 AM28 °FClear.3 mph93%30.13 "Hg15 mi
4:00 AM28 °FClear.5 mph93%30.12 "Hg15 mi
3:00 AM30 °FClear.5 mph86%30.12 "Hg15 mi
2:00 AM28 °FClear.3 mph93%30.11 "Hg15 mi
1:00 AM34 °FClear.10 mph87%30.08 "Hg15 mi
12:00 AM34 °FClear.10 mph87%30.07 "Hg15 mi
11:00 PM
Oct 24
34 °FClear.5 mph87%30.06 "Hg15 mi
10:00 PM36 °FClear.10 mph87%30.04 "Hg15 mi
9:00 PM36 °FPassing clouds.10 mph87%30.03 "Hg15 mi
8:00 PM39 °FPassing clouds.10 mph75%30.01 "Hg15 mi
7:00 PM43 °FPassing clouds.10 mph66%29.99 "Hg15 mi
6:00 PM48 °FPassing clouds.16 mph58%29.96 "Hg15 mi
5:00 PM54 °FPassing clouds.18 mph44%29.93 "Hg15 mi
4:00 PM55 °FPassing clouds.22 mph41%29.90 "Hg15 mi
3:00 PM55 °FPassing clouds.25 mph41%29.88 "Hg15 mi
2:00 PM55 °FPassing clouds.23 mph41%29.88 "Hg15 mi
1:00 PM54 °FScattered clouds.25 mph47%29.87 "Hg15 mi
12:00 PM55 °FPartly sunny.17 mph47%29.86 "Hg15 mi
11:00 AM54 °FPartly sunny.21 mph51%29.84 "Hg15 mi
10:00 AM50 °FScattered clouds.20 mph62%29.80 "Hg15 mi
9:00 AM50 °FPartly sunny.22 mph58%29.78 "Hg15 mi
Weather by CustomWeather, © 2014

See weather overviewHow to use our weather pages